Regional Weather Roundup
Issued by NWS

Home | Current Version | Previous Version | Graphics & Text | Print | Product List | Glossary On
Versions: 1 2 3 4 5 6 7 8 9 10 11 12 13 14 15 16 17 18 19 20 21 22 23 24 25 26 27 28 29 30 31 32 33 34 35 36 37 38 39 40 41 42 43 44 45 46 47 48 49 50
000
ASUS43 KLOT 220810
RWRIL

ILLINOIS REGIONAL WEATHER ROUNDUP
NATIONAL WEATHER SERVICE CHICAGO/ROMEOVILLE IL
300 AM CDT WED OCT 22 2014

NOTE: "FAIR" INDICATES FEW OR NO CLOUDS BELOW 12,000 FEET WITH NO
SIGNIFICANT WEATHER AND/OR OBSTRUCTIONS TO VISIBILITY.

* THESE STATIONS ARE NOT UNDER NWS QUALITY CONTROL. THEY ALSO MAY NOT
  REPORT WEATHER SUCH AS PRECIPITATION OR FOG.

ILZ001-002-007-009-015-016-024-220900-
NORTHWEST ILLINOIS

CITY           SKY/WX    TMP DP  RH WIND       PRES   REMARKS
MOLINE         CLEAR     34  33  96 E3        30.28R
STERLING*      CLEAR     36  30  80 CALM      30.29S
SAVANNA*       CLEAR     34  32  92 E6        30.29S WCI  29
$$

ILZ003-004-008-010-011-017-018-220900-
NORTH CENTRAL ILLINOIS

CITY           SKY/WX    TMP DP  RH WIND       PRES   REMARKS
ROCKFORD       PTCLDY    35  32  88 N5        30.31R WCI  31
FREEPORT*      PTCLDY    29  28  96 CALM      30.31S
ROCHELLE*      CLEAR     33  32  97 CALM      30.29S FOG
DE KALB*       CLEAR     32  31  96 CALM      30.29R
PERU*          CLEAR     37  34  92 NE7       30.29R WCI  31
$$

ILZ005-006-012>014-019>023-220900-
NORTHEAST ILLINOIS

CITY           SKY/WX    TMP DP  RH WIND       PRES   REMARKS
CHICAGO-OHARE  CLOUDY    47  39  74 CALM      30.27R
CHICAGO-MIDWAY MOCLDY    49  39  68 SW7       30.28R
AURORA         CLEAR     33  29  85 CALM      30.29R
LANSING*       CLEAR     37  36  96 CALM      30.28R
JOLIET*        CLEAR     35  34  97 CALM      30.28S
WAUKEGAN       CLEAR     37  34  89 NW3       30.28R
DUPAGE AIRPORT MOCLDY    41  37  86 N3        30.28R
KANKAKEE*      FOG       37  37  98 CALM      30.28S VSB 1
WHEELING       CLOUDY    47  40  76 NW6       30.29R
MORRIS*        CLEAR     37  36  97 CALM      30.27S
ROMEOVILLE*    CLEAR     37  36  97 N3        30.28S
NORTHERLY ISL    N/A     51  40  65 NE7         N/A
$$

LMZ740>746-220900-
SOUTHERN LAKE MICHIGAN

STATION/POSITION SKY/WX   TEMP    WIND        PRES    VSBY  WAVE
                          AIR SEA DIR/SP/G                  HT/PER
                          (F)     (DEG/KT/KT) (MB)    (MI)  (FT/S)
SOUTHERN BUOY              48 54  110/ 16/ 17 1025.6R         4/ 5
WAUKEGAN HARBOR            42     310/  7/  8   N/A
HARRISON CRIB              51      90/  4/  7   N/A
BURNHAM HARBOR             50     170/  7/  9   N/A
CALUMET HARBOR             45     220/  3/  5 1023.8R
MICHIGAN CITY              42     110/  6/  6   N/A
$$

ILZ025>027-034>036-040-047-049-050-058-095>099-220900-
WEST-CENTRAL ILLINOIS

CITY           SKY/WX    TMP DP  RH WIND       PRES   REMARKS
QUINCY         CLEAR     43  39  86 E6        30.24R
GALESBURG*     CLEAR     38  37  93 E3        30.27R
MACOMB*        CLEAR     36  36 100 NE5       30.28S FOG     WCI  32
JACKSONVILLE*  CLEAR     40  37  92 E3        30.25S
PITTSFIELD*    CLEAR     43  40  87 E3        30.25R
$$

ILZ028>032-037-038-041>044-048-051>054-059>061-220900-
CENTRAL ILLINOIS

CITY           SKY/WX    TMP DP  RH WIND       PRES   REMARKS
PONTIAC        CLEAR     35  33  95 N3        30.28R
BLOOMINGTON    CLEAR     40  37  89 NE5       30.27S
DECATUR        CLEAR     39  36  89 NE5       30.26R
PEORIA         CLEAR     41  36  82 E6        30.28R
LACON*         CLEAR     33  32  95 CALM      30.27R
LINCOLN*       CLEAR     38  37  94 CALM      30.26S
SPRINGFIELD    CLEAR     38  35  89 CALM      30.27R
TAYLORVILLE    CLEAR     37  36  93 CALM      30.25S
$$

ILZ033-039-045-046-055>057-062-063-220900-
EAST-CENTRAL ILLINOIS

CITY           SKY/WX    TMP DP  RH WIND       PRES   REMARKS
CHAMPAIGN      CLEAR     40  36  86 NE5       30.26R
DANVILLE*      CLEAR     38  35  89 NE3       30.23S
RANTOUL*       CLEAR     44  36  74 NE3       30.27R
MATTOON        CLEAR     39  36  89 N5        30.24R
PARIS*         CLEAR     40  38  93 CALM      30.26R
$$

ILZ079-100>102-220900-
SOUTHWEST ILLINOIS

CITY           SKY/WX    TMP DP  RH WIND       PRES   REMARKS
ALTON          CLEAR     43  40  87 NE5       30.24S
BELLEVILLE     CLEAR     43  42  95 NE1       30.22S
CAHOKIA*       CLEAR     46  41  82 E5        30.23S
SPARTA*        CLEAR     41  40  93 CALM      30.23R
$$

ILZ064>066-069>071-074>076-080>082-084>086-088>090-092>094-220900-
SOUTH-CENTRAL ILLINOIS

CITY           SKY/WX    TMP DP  RH WIND       PRES   REMARKS
CARBONDALE     CLEAR     43  40  89 NE5       30.22R
CAIRO*         CLEAR     48  42  78 N6        30.19R
EFFINGHAM*     CLEAR     42  38  83 CALM      30.24S
MARION         CLEAR     43  41  93 NE3       30.22R
MT. VERNON     CLEAR     45  37  76 N6        30.23S
CENTRALIA*     CLEAR     43  39  86 E3        30.23R
SALEM*         CLEAR     45  42  90 NE5       30.23S
METROPOLIS*    CLEAR     47  42  82 NE3       30.19R
$$

ILZ067-068-072-073-078-083-087-091-220900-
SOUTHEAST ILLINOIS

CITY           SKY/WX    TMP DP  RH WIND       PRES   REMARKS
LAWRENCEVILLE  CLEAR     43  41  93 NE7       30.24R
FLORA*         CLEAR     42  39  89 N5        30.24S
FAIRFIELD*     CLEAR     42  41  93 N5        30.22S
HARRISBURG*    CLEAR     45  42  91 CALM      30.23R
ROBINSON*      CLEAR     41  40  97 CALM      30.25R
CARMI*         CLEAR     43  42  99 N6        30.21S
$$

ABBREVIATIONS USED IN REMARKS
   TC - TEMPERATURE IN CELSIUS
  WCI - WIND CHILL INDEX
   HX - HEAT INDEX
  VSB - VISIBILITY
$$




USA.gov is the U.S. government's official web portal to all federal, state and local government web resources and services.